FW7889 Weather Reports


time (UTC)temp
F
wind
direction
speed
knots
gust
knots
rain 1hr
in
rain 24hr
in
rain mn
in
humidity
%
barometer
mb
20260509064204 29 293 0.9 0.9 0.00 0.00 0.00 98 1065.4
20260509063203 29 290 0.9 0.9 0.00 0.00 0.00 98 1065.4
20260509062203 29 288 0.9 0.9 0.00 0.00 0.00 98 1065.5
20260509061203 29 302 0.9 0.9 0.00 0.00 0.00 98 1065.6
20260509060203 29 297 0.9 0.9 0.00 0.00 0.00 97 1065.9
20260509055200 29 287 0.9 0.9 0.00 0.00 0.00 97 1065.9
20260509054200 29 286 0.9 0.9 0.00 0.00 0.00 97 1066.2
20260509053155 29 281 0.9 0.9 0.00 0.00 0.00 96 1066.1
20260509052150 29 282 0.0 0.9 0.00 0.00 0.00 96 1066.0
20260509051145 29 280 0.0 0.0 0.00 0.00 0.00 96 1066.0
20260509050144 29 301 0.9 0.9 0.00 0.00 0.00 96 1066.4
20260509045144 29 290 0.9 0.9 0.00 0.00 0.00 95 1066.4
20260509044144 29 281 0.0 0.0 0.00 0.00 0.00 95 1066.2
20260509043142 30 281 0.0 0.0 0.00 0.00 0.00 95 1066.4
20260509042141 30 282 0.9 0.9 0.00 0.00 0.00 94 1066.2
20260509041135 30 281 0.0 0.0 0.00 0.00 0.00 94 1066.1
20260509040130 30 279 0.0 0.0 0.00 0.00 0.00 94 1065.9
20260509035129 30 275 0.0 0.0 0.00 0.00 0.00 94 1065.8
20260509034124 30 289 0.9 0.9 0.00 0.00 0.00 93 1065.8
20260509033124 30 280 0.0 0.0 0.00 0.00 0.00 93 1066.0
20260509032124 31 285 0.0 0.0 0.00 0.00 0.00 92 1066.0
20260509031119 31 285 0.0 0.0 0.00 0.00 0.00 92 1066.4
20260509030120 32 288 0.9 0.9 0.00 0.00 0.00 91 1066.1
20260509025117 32 288 0.9 0.9 0.00 0.00 0.00 90 1066.4
20260509024115 32 288 0.9 0.9 0.00 0.00 0.00 89 1066.5
20260509023110 32 290 0.9 0.9 0.00 0.00 0.00 86 1066.2
20260509022110 33 287 0.9 0.9 0.00 0.00 0.00 87 1066.0
20260509021109 33 293 0.9 0.9 0.00 0.00 0.00 85 1066.1
20260509020104 34 293 0.9 0.9 0.00 0.00 0.00 82 1066.0
20260509015100 34 284 0.9 0.9 0.00 0.00 0.00 79 1065.8
20260509014058 35 285 0.0 0.9 0.00 0.00 0.00 79 1065.7
20260509013057 35 291 0.9 0.9 0.00 0.00 0.00 72 1065.5
20260509012056 36 285 0.0 0.0 0.00 0.00 0.00 75 1065.2
20260509011056 37 286 0.9 0.9 0.00 0.00 0.00 75 1065.2
20260509010056 38 285 0.9 0.9 0.00 0.00 0.00 71 1065.3
20260509005055 38 282 0.9 0.9 0.00 0.00 0.00 69 1065.2
20260509004055 39 282 0.0 0.9 0.00 0.00 0.00 66 1065.3
20260509003050 40 267 0.0 0.9 0.00 0.00 0.00 68 1065.1
20260509002045 41 268 0.0 0.9 0.00 0.00 0.00 68 1065.2
20260509001043 44 270 0.0 0.0 0.00 0.00 0.00 57 1064.9
20260509000044 45 267 0.0 0.9 0.00 0.00 0.00 49 1065.0
20260508235044 46 262 0.0 0.0 0.00 0.00 0.00 48 1065.0
20260508234038 46 247 1.7 1.7 0.00 0.00 0.00 46 1064.7
20260508233034 47 230 5.2 6.1 0.00 0.00 0.00 46 1064.9
20260508232034 47 242 0.9 1.7 0.00 0.00 0.00 47 1064.8
20260508231034 47 277 1.7 1.7 0.00 0.00 0.00 45 1064.8
20260508230033 48 245 1.7 1.7 0.00 0.00 0.00 45 1064.9
20260508225033 48 264 2.6 2.6 0.00 0.00 0.00 45 1065.2
20260508224028 48 256 4.3 5.2 0.00 0.00 0.00 45 1064.7
20260508223023 48 306 2.6 2.6 0.00 0.00 0.00 45 1064.7
20260508222023 48 237 1.7 2.6 0.00 0.00 0.00 46 1064.8
20260508221021 49 299 3.5 5.2 0.00 0.00 0.00 45 1064.6
20260508220020 49 236 4.3 7.8 0.00 0.00 0.00 45 1064.6
20260508215020 49 226 2.6 2.6 0.00 0.00 0.00 46 1064.5
20260508214019 49 314 4.3 5.2 0.00 0.00 0.00 45 1064.4
20260508213018 49 269 0.9 0.9 0.00 0.00 0.00 46 1064.5
20260508212017 48 310 1.7 1.7 0.00 0.00 0.00 47 1064.3
20260508211015 49 295 3.5 4.3 0.00 0.00 0.00 48 1064.5
20260508210010 49 316 3.5 4.3 0.00 0.00 0.00 48 1064.7
20260508205008 49 281 0.0 0.9 0.00 0.00 0.00 48 1064.5
20260508204007 48 250 3.5 5.2 0.00 0.00 0.00 49 1064.6
20260508203005 48 248 2.6 2.6 0.00 0.00 0.00 49 1064.6
20260508202005 49 254 2.6 4.3 0.00 0.00 0.00 47 1064.3
20260508201004 47 264 4.3 5.2 0.00 0.00 0.00 67 1064.3
20260508200002 47 250 6.1 7.8 0.00 0.00 0.00 65 1064.7
20260508195001 48 279 3.5 5.2 0.00 0.00 0.00 60 1064.6
20260508193956 48 314 1.7 1.7 0.00 0.00 0.00 51 1064.5
20260508192955 46 240 4.3 5.2 0.00 0.00 0.00 59 1064.8
20260508191954 46 244 5.2 6.1 0.00 0.00 0.00 58 1064.7
20260508190954 46 246 3.5 4.3 0.00 0.00 0.00 61 1064.5
20260508185953 46 221 5.2 7.0 0.00 0.00 0.00 65 1064.7
20260508184948 46 221 3.5 5.2 0.00 0.00 0.00 58 1064.8
20260508183948 47 234 4.3 6.1 0.00 0.00 0.00 52 1064.7
20260508182945 48 276 2.6 4.3 0.00 0.00 0.00 53 1064.8
20260508181943 48 275 3.5 4.3 0.00 0.00 0.00 52 1064.6
20260508180938 46 228 2.6 2.6 0.00 0.00 0.00 54 1064.7
20260508175936 46 297 0.9 0.9 0.00 0.00 0.00 54 1064.6
20260508174936 47 277 2.6 2.6 0.00 0.00 0.00 52 1064.6
20260508173936 46 255 2.6 2.6 0.00 0.00 0.00 54 1064.5
20260508172934 46 274 4.3 5.2 0.00 0.00 0.00 55 1064.5
20260508171934 47 305 2.6 2.6 0.00 0.00 0.00 55 1064.6
20260508170933 46 254 3.5 4.3 0.00 0.00 0.00 58 1064.8
20260508165933 46 304 0.0 0.9 0.00 0.00 0.00 57 1064.9
20260508164932 46 237 3.5 6.1 0.00 0.00 0.00 57 1064.8
20260508163933 48 216 7.0 11.3 0.00 0.00 0.00 57 1064.8
20260508162931 47 148 1.7 1.7 0.00 0.00 0.00 57 1064.7
20260508161926 47 188 4.3 5.2 0.00 0.00 0.00 57 1064.9
20260508160926 45 298 1.7 2.6 0.00 0.00 0.00 59 1064.7
20260508155926 45 297 0.9 0.9 0.00 0.00 0.00 57 1065.0
20260508154926 45 256 3.5 5.2 0.00 0.00 0.00 58 1065.0
20260508153926 44 251 2.6 2.6 0.00 0.00 0.00 60 1065.0
20260508152925 44 330 2.6 4.3 0.00 0.00 0.00 60 1065.0
20260508151924 44 292 2.6 2.6 0.00 0.00 0.00 61 1064.8
20260508150923 43 250 2.6 2.6 0.00 0.00 0.00 61 1064.8
20260508145921 44 289 1.7 1.7 0.00 0.00 0.00 59 1064.7
20260508144921 44 231 1.7 1.7 0.00 0.00 0.00 58 1064.4
20260508143916 44 234 2.6 2.6 0.00 0.00 0.00 58 1064.5
20260508142915 44 296 3.5 4.3 0.00 0.00 0.00 59 1064.5
20260508141915 43 271 0.9 0.9 0.00 0.00 0.00 62 1064.7
20260508140915 44 332 3.5 5.2 0.00 0.00 0.00 61 1064.6
20260508135913 44 326 3.5 5.2 0.00 0.00 0.00 62 1064.3
20260508134912 44 245 1.7 2.6 0.00 0.00 0.00 63 1064.4
20260508133911 44 283 3.5 4.3 0.00 0.00 0.00 63 1064.2
20260508132906 43 283 0.0 0.9 0.00 0.00 0.00 65 1064.3
20260508131906 42 324 2.6 2.6 0.00 0.00 0.00 66 1064.2
20260508130905 42 279 4.3 5.2 0.00 0.00 0.00 65 1064.2
20260508125903 41 314 2.6 2.6 0.00 0.00 0.00 70 1064.6
20260508124904 41 314 2.6 2.6 0.00 0.00 0.00 71 1064.5
20260508123859 40 286 0.9 0.9 0.00 0.00 0.00 74 1064.4
20260508122859 40 232 4.3 5.2 0.00 0.00 0.00 76 1064.5
20260508121859 39 279 2.6 2.6 0.00 0.00 0.00 77 1064.5
20260508120854 39 309 0.9 1.7 0.00 0.00 0.00 78 1064.6
20260508115849 40 307 0.9 1.7 0.00 0.00 0.00 81 1064.7
20260508114849 39 289 0.9 0.9 0.00 0.00 0.00 82 1064.6
20260508113849 38 263 1.7 1.7 0.00 0.00 0.00 86 1064.9
20260508112849 38 238 4.3 6.1 0.00 0.00 0.00 86 1065.0
20260508111848 37 250 0.9 1.7 0.00 0.00 0.00 87 1065.0
20260508110843 37 251 1.7 1.7 0.00 0.00 0.00 88 1065.0
20260508105840 37 256 0.9 0.9 0.00 0.00 0.00 89 1064.9
20260508104840 36 249 1.7 2.6 0.00 0.00 0.00 91 1064.9
20260508103840 35 252 0.9 0.9 0.00 0.00 0.00 94 1064.7
20260508102840 34 256 0.9 0.9 0.00 0.00 0.00 96 1064.4
20260508101835 33 264 0.9 0.9 0.00 0.00 0.00 98 1064.7
20260508100830 32 277 0.9 0.9 0.00 0.00 0.00 98 1064.5
20260508095829 32 283 0.9 0.9 0.00 0.00 0.00 97 1064.6
20260508094824 33 265 0.9 0.9 0.00 0.00 0.00 97 1064.5
20260508093824 33 264 0.0 0.9 0.00 0.00 0.00 95 1064.5
20260508092819 35 259 0.9 0.9 0.00 0.00 0.00 94 1064.7
20260508091815 35 270 0.0 0.0 0.00 0.00 0.00 92 1064.3
20260508090815 36 259 0.9 0.9 0.00 0.00 0.00 90 1064.3
20260508085814 36 270 0.0 0.9 0.00 0.00 0.00 90 1064.5
20260508084813 36 248 0.9 0.9 0.00 0.00 0.00 90 1064.5
20260508083808 36 264 0.0 0.0 0.00 0.00 0.00 90 1064.5
20260508082805 36 259 0.0 0.0 0.00 0.00 0.00 89 1064.5
20260508081800 36 258 0.9 0.9 0.00 0.00 0.00 89 1064.2
20260508080759 36 259 0.9 0.9 0.00 0.00 0.00 89 1064.3
20260508075759 36 271 0.0 0.0 0.00 0.00 0.00 90 1064.3
20260508074754 35 262 0.9 0.9 0.00 0.00 0.00 92 1064.2
20260508073754 35 256 0.9 0.9 0.00 0.00 0.00 92 1063.9
20260508072753 35 271 0.0 0.0 0.00 0.00 0.00 92 1063.9
20260508071748 34 263 0.9 0.9 0.00 0.00 0.00 95 1064.2
20260508070743 34 283 0.0 0.9 0.00 0.00 0.00 95 1063.9
20260508065738 34 269 0.0 0.9 0.00 0.00 0.00 95 1063.7